CW5416 Weather Reports


Display with metric or nautical units.
time (UTC)temp
F
wind
direction
speed
MPH
gust
MPH
rain 1hr
in
rain 24hr
in
rain mn
in
humidity
%
barometer
mb
20181015092009 53 17 4.0 6.0 0.00 0.00 0.00 21 1048.2
20181015091517 53 37 3.0 4.0 0.00 0.00 0.00 21 1048.2
20181015091006 53 37 2.0 4.0 0.00 0.00 0.00 21 1048.2
20181015090506 53 45 5.0 6.0 0.00 0.00 0.00 21 1048.2
20181015090005 53 19 4.0 5.0 0.00 0.00 0.00 21 1048.2
20181015085539 54 39 0.0 0.0 0.00 0.00 0.00 20 1048.2
20181015085008 54 357 2.0 6.0 0.00 0.00 0.00 20 1048.2
20181015084508 54 91 3.0 4.0 0.00 0.00 0.00 20 1048.2
20181015084006 54 16 4.0 4.0 0.00 0.00 0.00 20 1048.2
20181015083506 54 61 4.0 5.0 0.00 0.00 0.00 20 1048.2
20181015083005 54 25 3.0 4.0 0.00 0.00 0.00 20 1048.2
20181015082504 54 11 5.0 7.0 0.00 0.00 0.00 20 1048.2
20181015082009 54 27 3.0 4.0 0.00 0.00 0.00 20 1048.2
20181015081508 54 35 4.0 5.0 0.00 0.00 0.00 20 1047.2
20181015081007 54 11 5.0 7.0 0.00 0.00 0.00 20 1047.2
20181015080507 55 59 4.0 6.0 0.00 0.00 0.00 20 1047.2
20181015080005 55 357 5.0 8.0 0.00 0.00 0.00 20 1048.2
20181015075504 55 49 5.0 9.0 0.00 0.00 0.00 20 1048.2
20181015075004 55 29 6.0 7.0 0.00 0.00 0.00 20 1048.2
20181015074508 55 342 5.0 6.0 0.00 0.00 0.00 20 1048.2
20181015074007 55 23 5.0 9.0 0.00 0.00 0.00 20 1048.2
20181015073507 55 65 4.0 5.0 0.00 0.00 0.00 20 1048.2
20181015073005 55 78 3.0 5.0 0.00 0.00 0.00 20 1048.2
20181015072504 55 25 4.0 6.0 0.00 0.00 0.00 20 1048.2
20181015072010 55 84 6.0 7.0 0.00 0.00 0.00 20 1048.2
20181015071509 55 97 4.0 5.0 0.00 0.00 0.00 20 1048.2
20181015071007 55 58 3.0 4.0 0.00 0.00 0.00 20 1048.2
20181015070507 55 86 5.0 6.0 0.00 0.00 0.00 20 1048.2
20181015070006 55 341 3.0 4.0 0.00 0.00 0.00 20 1048.2
20181015065504 56 96 5.0 9.0 0.00 0.00 0.00 20 1048.2
20181015065009 55 31 5.0 7.0 0.00 0.00 0.00 20 1048.2
20181015064508 55 50 5.0 5.0 0.00 0.00 0.00 20 1048.2
20181015064007 55 54 4.0 7.0 0.00 0.00 0.00 20 1048.2
20181015063506 55 96 4.0 5.0 0.00 0.00 0.00 20 1048.2
20181015063005 55 55 4.0 6.0 0.00 0.00 0.00 20 1048.2
20181015062503 55 349 5.0 6.0 0.00 0.00 0.00 20 1048.2
20181015062008 55 20 4.0 7.0 0.00 0.00 0.00 20 1048.2
20181015061507 55 45 5.0 6.0 0.00 0.00 0.00 20 1048.2
20181015061006 55 20 4.0 6.0 0.00 0.00 0.00 20 1048.2
20181015060504 55 43 4.0 6.0 0.00 0.00 0.00 20 1048.2
20181015060003 55 21 5.0 7.0 0.00 0.00 0.00 20 1048.2
20181015055508 55 69 4.0 4.0 0.00 0.00 0.00 20 1048.2
20181015055007 55 10 4.0 5.0 0.00 0.00 0.00 20 1048.2
20181015054505 55 43 5.0 6.0 0.00 0.00 0.00 20 1048.2
20181015054004 55 27 4.0 6.0 0.00 0.00 0.00 20 1048.2
20181015053509 55 19 4.0 4.0 0.00 0.00 0.00 20 1048.2
20181015053008 55 38 2.0 4.0 0.00 0.00 0.00 20 1048.2
20181015052507 55 38 3.0 4.0 0.00 0.00 0.00 20 1048.2
20181015052006 56 61 5.0 6.0 0.00 0.00 0.00 20 1048.2
20181015051505 56 65 4.0 6.0 0.00 0.00 0.00 20 1048.2
20181015051004 56 25 4.0 4.0 0.00 0.00 0.00 20 1048.2
20181015050508 56 51 3.0 4.0 0.00 0.00 0.00 20 1048.2
20181015050007 56 66 4.0 5.0 0.00 0.00 0.00 20 1049.2
20181015045507 56 42 2.0 4.0 0.00 0.00 0.00 20 1049.2
20181015045005 56 47 3.0 5.0 0.00 0.00 0.00 20 1049.2
20181015044504 56 62 4.0 4.0 0.00 0.00 0.00 20 1049.2
20181015044008 56 31 3.0 5.0 0.00 0.00 0.00 20 1049.2
20181015043508 56 57 4.0 4.0 0.00 0.00 0.00 20 1049.2
20181015043006 56 56 3.0 4.0 0.00 0.00 0.00 20 1049.2
20181015042505 56 54 4.0 5.0 0.00 0.00 0.00 20 1049.2
20181015042004 57 63 4.0 5.0 0.00 0.00 0.00 20 1049.2
20181015041509 57 62 4.0 4.0 0.00 0.00 0.00 20 1048.2
20181015041007 57 39 4.0 6.0 0.00 0.00 0.00 20 1048.2
20181015040506 57 42 3.0 4.0 0.00 0.00 0.00 20 1048.2
20181015040005 57 32 4.0 4.0 0.00 0.00 0.00 19 1049.2
20181015035508 57 19 3.0 5.0 0.00 0.00 0.00 19 1049.2
20181015035008 58 31 4.0 4.0 0.00 0.00 0.00 19 1049.2
20181015034507 58 32 4.0 6.0 0.00 0.00 0.00 19 1048.2
20181015034006 58 15 5.0 6.0 0.00 0.00 0.00 19 1048.2
20181015033504 58 20 5.0 5.0 0.00 0.00 0.00 19 1048.2
20181015033009 58 33 5.0 7.0 0.00 0.00 0.00 19 1048.2
20181015032508 58 38 5.0 8.0 0.00 0.00 0.00 19 1048.2
20181015032007 59 14 4.0 6.0 0.00 0.00 0.00 19 1048.2
20181015031506 59 17 4.0 5.0 0.00 0.00 0.00 19 1048.2
20181015031005 59 44 1.0 5.0 0.00 0.00 0.00 19 1048.2
20181015030504 59 35 4.0 6.0 0.00 0.00 0.00 19 1048.2
20181015030009 59 337 4.0 4.0 0.00 0.00 0.00 19 1048.2
20181015025507 59 353 6.0 9.0 0.00 0.00 0.00 19 1048.2
20181015025006 60 5 6.0 9.0 0.00 0.00 0.00 19 1048.2
20181015024505 60 10 6.0 7.0 0.00 0.00 0.00 19 1048.2
20181015024004 60 10 6.0 6.0 0.00 0.00 0.00 19 1048.2
20181015023509 60 30 5.0 6.0 0.00 0.00 0.00 19 1048.2
20181015023008 60 29 2.0 4.0 0.00 0.00 0.00 19 1048.2
20181015022507 60 353 5.0 7.0 0.00 0.00 0.00 19 1048.2
20181015022006 60 36 6.0 7.0 0.00 0.00 0.00 19 1048.2
20181015021504 60 64 4.0 5.0 0.00 0.00 0.00 19 1048.2
20181015021004 61 7 5.0 7.0 0.00 0.00 0.00 19 1048.2
20181015020509 61 46 7.0 7.0 0.00 0.00 0.00 19 1048.2
20181015020007 61 357 4.0 5.0 0.00 0.00 0.00 19 1048.2
20181015015506 61 14 4.0 6.0 0.00 0.00 0.00 19 1048.2
20181015015005 62 49 7.0 8.0 0.00 0.00 0.00 19 1048.2
20181015014504 62 1 4.0 5.0 0.00 0.00 0.00 19 1048.2
20181015014003 62 353 6.0 9.0 0.00 0.00 0.00 19 1048.2
20181015013508 63 357 4.0 4.0 0.00 0.00 0.00 18 1048.2
20181015013007 63 324 4.0 5.0 0.00 0.00 0.00 18 1048.2
20181015012506 64 36 5.0 8.0 0.00 0.00 0.00 18 1048.2
20181015012005 64 11 5.0 7.0 0.00 0.00 0.00 18 1048.2
20181015011503 64 25 5.0 7.0 0.00 0.00 0.00 18 1048.2
20181015011008 64 9 6.0 7.0 0.00 0.00 0.00 18 1048.2
20181015010508 65 26 5.0 6.0 0.00 0.00 0.00 18 1048.2
20181015010006 65 17 7.0 9.0 0.00 0.00 0.00 18 1048.2
20181015005505 65 18 7.0 9.0 0.00 0.00 0.00 18 1048.2
20181015005004 66 28 3.0 5.0 0.00 0.00 0.00 18 1048.2
20181015004508 66 328 3.0 5.0 0.00 0.00 0.00 17 1048.2
20181015004008 67 24 6.0 8.0 0.00 0.00 0.00 17 1048.2
20181015003506 67 18 3.0 5.0 0.00 0.00 0.00 17 1048.2
20181015003005 67 44 4.0 6.0 0.00 0.00 0.00 17 1048.2
20181015002504 67 27 3.0 5.0 0.00 0.00 0.00 17 1048.2
20181015002003 67 46 5.0 6.0 0.00 0.00 0.00 17 1048.2
20181015001508 68 32 4.0 8.0 0.00 0.00 0.00 17 1048.2
20181015001006 68 56 3.0 4.0 0.00 0.00 0.00 17 1048.2
20181015000505 68 45 5.0 9.0 0.00 0.00 0.00 17 1048.2
20181015000004 68 70 5.0 8.0 0.00 0.00 0.00 17 1047.2
20181014235503 68 69 4.0 4.0 0.00 0.00 0.00 17 1047.2
20181014235039 68 82 5.0 7.0 0.00 0.00 0.00 17 1047.2
20181014234507 68 53 5.0 7.0 0.00 0.00 0.00 17 1048.2
20181014234006 69 78 3.0 6.0 0.00 0.00 0.00 17 1048.2
20181014233505 69 66 8.0 10.0 0.00 0.00 0.00 17 1048.2
20181014233004 69 49 4.0 6.0 0.00 0.00 0.00 17 1048.2
20181014232508 69 37 4.0 5.0 0.00 0.00 0.00 17 1048.2
20181014232008 70 34 6.0 7.0 0.00 0.00 0.00 17 1048.2
20181014231507 70 40 5.0 6.0 0.00 0.00 0.00 17 1048.2
20181014231005 70 32 4.0 5.0 0.00 0.00 0.00 17 1048.2
20181014230504 70 332 4.0 6.0 0.00 0.00 0.00 17 1048.2
20181014230008 71 110 7.0 10.0 0.00 0.00 0.00 17 1048.2
20181014225508 71 89 4.0 5.0 0.00 0.00 0.00 17 1048.2
20181014225006 72 88 5.0 6.0 0.00 0.00 0.00 16 1048.2
20181014224505 72 46 5.0 6.0 0.00 0.00 0.00 16 1048.2
20181014224009 72 53 7.0 16.0 0.00 0.00 0.00 16 1048.2
20181014223508 73 102 5.0 9.0 0.00 0.00 0.00 16 1048.2
20181014223007 74 77 5.0 8.0 0.00 0.00 0.00 16 1048.2
20181014222506 75 89 4.0 5.0 0.00 0.00 0.00 15 1048.2
20181014222005 76 38 8.0 13.0 0.00 0.00 0.00 15 1048.2
20181014221504 76 112 6.0 7.0 0.00 0.00 0.00 15 1048.2
20181014221009 76 59 7.0 9.0 0.00 0.00 0.00 15 1048.2
20181014220507 76 85 5.0 6.0 0.00 0.00 0.00 15 1048.2
20181014220006 75 98 5.0 9.0 0.00 0.00 0.00 15 1048.2
20181014215505 75 78 5.0 8.0 0.00 0.00 0.00 15 1048.2
20181014215003 75 24 6.0 8.0 0.00 0.00 0.00 16 1048.2
20181014214508 75 102 5.0 6.0 0.00 0.00 0.00 16 1048.2
20181014214007 74 57 5.0 7.0 0.00 0.00 0.00 16 1048.2
20181014213506 75 98 6.0 8.0 0.00 0.00 0.00 15 1048.2
20181014213004 75 102 6.0 9.0 0.00 0.00 0.00 15 1048.2
20181014212509 76 73 4.0 6.0 0.00 0.00 0.00 15 1048.2
20181014212007 75 63 6.0 7.0 0.00 0.00 0.00 15 1048.2
20181014211506 76 64 7.0 10.0 0.00 0.00 0.00 15 1048.2
20181014211006 76 93 4.0 6.0 0.00 0.00 0.00 15 1048.2
20181014210504 75 68 1.0 4.0 0.00 0.00 0.00 15 1048.2
20181014210009 74 46 7.0 12.0 0.00 0.00 0.00 16 1048.2
20181014205508 74 328 5.0 7.0 0.00 0.00 0.00 16 1048.2
20181014205006 74 3 5.0 6.0 0.00 0.00 0.00 16 1048.2
20181014204505 74 87 5.0 6.0 0.00 0.00 0.00 16 1048.2
20181014204004 74 30 6.0 7.0 0.00 0.00 0.00 16 1048.2
20181014203503 73 83 5.0 6.0 0.00 0.00 0.00 16 1048.2
20181014203008 72 120 6.0 7.0 0.00 0.00 0.00 16 1048.2
20181014202507 72 94 6.0 9.0 0.00 0.00 0.00 16 1048.2
20181014202006 71 211 5.0 6.0 0.00 0.00 0.00 17 1048.2
20181014201505 71 91 4.0 4.0 0.00 0.00 0.00 17 1049.2
20181014201004 71 68 3.0 4.0 0.00 0.00 0.00 17 1049.2
20181014200509 70 83 7.0 8.0 0.00 0.00 0.00 17 1049.2
20181014200008 69 115 5.0 5.0 0.00 0.00 0.00 17 1048.2
20181014195506 69 339 3.0 6.0 0.00 0.00 0.00 17 1048.2
20181014195005 68 43 5.0 8.0 0.00 0.00 0.00 17 1048.2
20181014194504 67 72 4.0 5.0 0.00 0.00 0.00 17 1049.2
20181014194008 66 4 6.0 8.0 0.00 0.00 0.00 18 1049.2
20181014193507 65 138 5.0 6.0 0.00 0.00 0.00 18 1049.2
20181014193006 64 306 5.0 5.0 0.00 0.00 0.00 18 1049.2
20181014192505 64 18 6.0 7.0 0.00 0.00 0.00 18 1049.2
20181014192004 63 3 6.0 7.0 0.00 0.00 0.00 18 1049.2
20181014191509 63 40 4.0 5.0 0.00 0.00 0.00 18 1049.2
20181014191007 63 36 7.0 9.0 0.00 0.00 0.00 18 1049.2
20181014190506 63 353 6.0 10.0 0.00 0.00 0.00 18 1049.2
20181014190005 63 29 8.0 16.0 0.00 0.00 0.00 18 1049.2
20181014185503 62 95 5.0 6.0 0.00 0.00 0.00 19 1049.2
20181014185008 62 40 7.0 10.0 0.00 0.00 0.00 19 1049.2
20181014184506 62 19 7.0 11.0 0.00 0.00 0.00 19 1049.2
20181014184005 62 44 7.0 10.0 0.00 0.00 0.00 19 1049.2
20181014183504 62 357 6.0 7.0 0.00 0.00 0.00 19 1049.2
20181014183009 62 339 4.0 5.0 0.00 0.00 0.00 19 1049.2
20181014182507 62 38 4.0 6.0 0.00 0.00 0.00 19 1049.2
20181014182006 62 24 5.0 7.0 0.00 0.00 0.00 19 1049.2
20181014181505 62 49 4.0 6.0 0.00 0.00 0.00 19 1049.2
20181014181004 62 12 5.0 6.0 0.00 0.00 0.00 19 1049.2
20181014180509 62 32 6.0 7.0 0.00 0.00 0.00 19 1049.2
20181014180008 62 47 4.0 6.0 0.00 0.00 0.00 19 1049.2
20181014175507 62 101 6.0 9.0 0.00 0.00 0.00 19 1049.2
20181014175006 62 0 7.0 7.0 0.00 0.00 0.00 19 1049.2
20181014174504 61 68 4.0 6.0 0.00 0.00 0.00 19 1049.2
20181014174003 60 285 5.0 9.0 0.00 0.00 0.00 19 1049.2
20181014173508 60 18 5.0 8.0 0.00 0.00 0.00 19 1049.2
20181014173008 59 24 5.0 9.0 0.00 0.00 0.00 19 1049.2
20181014172506 58 11 9.0 11.0 0.00 0.00 0.00 19 1049.2
20181014172005 57 38 6.0 10.0 0.00 0.00 0.00 19 1049.2
20181014171503 57 39 5.0 9.0 0.00 0.00 0.00 20 1049.2
20181014171008 56 30 6.0 7.0 0.00 0.00 0.00 20 1049.2
20181014170507 56 15 5.0 6.0 0.00 0.00 0.00 20 1049.2
20181014170006 56 32 7.0 8.0 0.00 0.00 0.00 20 1049.2
20181014165505 55 342 7.0 9.0 0.00 0.00 0.00 20 1049.2
20181014165004 55 353 7.0 9.0 0.00 0.00 0.00 20 1049.2
20181014164509 55 97 5.0 7.0 0.00 0.00 0.00 20 1049.2
20181014164008 55 3 4.0 6.0 0.00 0.00 0.00 20 1049.2
20181014163507 54 109 5.0 8.0 0.00 0.00 0.00 20 1049.2
20181014163006 54 36 5.0 9.0 0.00 0.00 0.00 20 1049.2
20181014162505 53 16 6.0 9.0 0.00 0.00 0.00 21 1049.2
20181014162005 53 41 5.0 7.0 0.00 0.00 0.00 21 1049.2
20181014161508 53 69 5.0 7.0 0.00 0.00 0.00 21 1049.2
20181014161007 53 7 6.0 12.0 0.00 0.00 0.00 21 1049.2
20181014160506 53 85 7.0 12.0 0.00 0.00 0.00 21 1049.2
20181014160005 52 15 4.0 5.0 0.00 0.00 0.00 21 1049.2
20181014155504 52 46 6.0 9.0 0.00 0.00 0.00 21 1049.2
20181014155003 52 51 7.0 9.0 0.00 0.00 0.00 21 1049.2
20181014154508 51 65 5.0 7.0 0.00 0.00 0.00 21 1048.2
20181014154006 51 39 7.0 9.0 0.00 0.00 0.00 21 1048.2
20181014153505 50 85 4.0 6.0 0.00 0.00 0.00 21 1048.2
20181014153004 50 113 7.0 10.0 0.00 0.00 0.00 21 1049.2
20181014152502 50 73 4.0 6.0 0.00 0.00 0.00 21 1049.2
20181014152008 49 35 6.0 8.0 0.00 0.00 0.00 21 1049.2
20181014151506 49 326 4.0 6.0 0.00 0.00 0.00 21 1049.2
20181014151005 49 40 5.0 8.0 0.00 0.00 0.00 21 1049.2
20181014150503 48 36 4.0 6.0 0.00 0.00 0.00 24 1049.2
20181014150003 48 26 5.0 6.0 0.00 0.00 0.00 21 1048.2
20181014145508 49 24 4.0 5.0 0.00 0.00 0.00 21 1048.2
20181014145007 48 353 4.0 5.0 0.00 0.00 0.00 21 1048.2
20181014144505 48 17 3.0 4.0 0.00 0.00 0.00 21 1049.2
20181014144004 48 41 6.0 8.0 0.00 0.00 0.00 22 1049.2
20181014143509 48 13 5.0 7.0 0.00 0.00 0.00 22 1049.2
20181014143007 47 49 7.0 9.0 0.00 0.00 0.00 24 1048.2
20181014142507 47 6 5.0 6.0 0.00 0.00 0.00 24 1048.2
20181014142005 47 25 5.0 6.0 0.00 0.00 0.00 24 1048.2
20181014141505 47 37 4.0 5.0 0.00 0.00 0.00 24 1048.2
20181014141004 46 29 3.0 6.0 0.00 0.00 0.00 24 1048.2
20181014140502 46 38 4.0 5.0 0.00 0.00 0.00 25 1048.2
20181014140007 46 357 4.0 5.0 0.00 0.00 0.00 25 1048.2
20181014135507 46 12 4.0 5.0 0.00 0.00 0.00 25 1048.2
20181014135006 46 6 3.0 4.0 0.00 0.00 0.00 24 1048.2
20181014134510 47 6 0.0 0.0 0.00 0.00 0.00 24 1048.2
20181014134009 47 6 3.0 3.0 0.00 0.00 0.00 24 1048.2
20181014133507 47 5 3.0 5.0 0.00 0.00 0.00 24 1048.2
20181014133006 47 6 4.0 6.0 0.00 0.00 0.00 22 1048.2
20181014132505 48 357 2.0 4.0 0.00 0.00 0.00 22 1048.2
20181014132004 48 357 4.0 5.0 0.00 0.00 0.00 22 1048.2
20181014131509 48 54 4.0 4.0 0.00 0.00 0.00 22 1048.2
20181014131007 48 64 2.0 4.0 0.00 0.00 0.00 21 1048.2
20181014130506 48 42 2.0 4.0 0.00 0.00 0.00 21 1048.2
20181014130005 48 10 3.0 4.0 0.00 0.00 0.00 21 1048.2
20181014125504 48 8 4.0 5.0 0.00 0.00 0.00 21 1048.2
20181014125009 48 54 3.0 4.0 0.00 0.00 0.00 21 1048.2
20181014124508 48 13 3.0 4.0 0.00 0.00 0.00 21 1048.2
20181014124007 49 28 4.0 5.0 0.00 0.00 0.00 21 1048.2
20181014123506 48 65 3.0 4.0 0.00 0.00 0.00 21 1048.2
20181014123004 48 7 5.0 6.0 0.00 0.00 0.00 21 1047.2
20181014122503 48 41 4.0 5.0 0.00 0.00 0.00 21 1047.2
20181014122008 48 49 4.0 4.0 0.00 0.00 0.00 21 1047.2
20181014121507 48 37 4.0 5.0 0.00 0.00 0.00 24 1048.2
20181014121006 47 37 3.0 4.0 0.00 0.00 0.00 24 1048.2
20181014120505 47 63 3.0 5.0 0.00 0.00 0.00 24 1048.2
20181014120004 47 21 4.0 5.0 0.00 0.00 0.00 24 1047.2
20181014115509 47 20 4.0 4.0 0.00 0.00 0.00 24 1047.2
20181014115008 47 25 3.0 4.0 0.00 0.00 0.00 24 1047.2
20181014114507 47 23 3.0 4.0 0.00 0.00 0.00 24 1047.2
20181014114006 47 22 3.0 4.0 0.00 0.00 0.00 24 1047.2
20181014113504 47 357 3.0 4.0 0.00 0.00 0.00 24 1047.2
20181014113009 47 2 4.0 5.0 0.00 0.00 0.00 24 1047.2
20181014112509 46 19 3.0 5.0 0.00 0.00 0.00 25 1047.2
20181014112007 46 9 2.0 4.0 0.00 0.00 0.00 25 1047.2
20181014111507 45 9 3.0 4.0 0.00 0.00 0.00 25 1047.2
20181014111004 46 357 4.0 4.0 0.00 0.00 0.00 27 1047.2
20181014110508 46 357 0.0 0.0 0.00 0.00 0.00 27 1047.2
20181014110008 46 357 1.0 3.0 0.00 0.00 0.00 27 1047.2
20181014105506 46 127 1.0 3.0 0.00 0.00 0.00 27 1047.2
20181014105004 46 22 2.0 4.0 0.00 0.00 0.00 27 1047.2
20181014104503 46 22 3.0 3.0 0.00 0.00 0.00 27 1047.2
20181014104008 46 22 2.0 4.0 0.00 0.00 0.00 27 1047.2
20181014103506 46 10 2.0 5.0 0.00 0.00 0.00 27 1047.2
20181014103007 46 46 3.0 4.0 0.00 0.00 0.00 28 1047.2
20181014102504 46 45 3.0 4.0 0.00 0.00 0.00 27 1047.2
20181014102003 46 45 1.0 3.0 0.00 0.00 0.00 28 1047.2
20181014101507 45 47 2.0 4.0 0.00 0.00 0.00 28 1047.2
20181014101006 45 47 2.0 3.0 0.00 0.00 0.00 28 1047.2
20181014100505 45 21 0.0 0.0 0.00 0.00 0.00 28 1047.2
20181014100004 45 21 0.0 0.0 0.00 0.00 0.00 28 1047.2
20181014095509 45 21 0.0 0.0 0.00 0.00 0.00 28 1047.2
20181014095007 46 21 0.0 0.0 0.00 0.00 0.00 28 1047.2
20181014094506 46 21 0.0 0.0 0.00 0.00 0.00 28 1047.2
20181014094005 46 21 0.0 0.0 0.00 0.00 0.00 28 1047.2
20181014093504 46 21 0.0 0.0 0.00 0.00 0.00 28 1047.2
20181014093009 46 21 0.0 0.0 0.00 0.00 0.00 28 1047.2
20181014092507 46 21 0.0 0.0 0.00 0.00 0.00 27 1047.2